[[{"header":{"parameterUnit":"m.s-1","parameterCategory":1,"la1":30.2991,"la2":30.254,"lo1":-89.0895,"lo2":-89.0444,"dy":0.0017,"dx":0.0017,"nx":28,"ny":28,"refTime":"2025-03-23T03:00:00:Z","depth":0,"parameterNumber":2,"parameterNumberName":"U-component_of_WINDS"},"data":[0,0,0,0,0,0,0,0,0,0,0,0,0,0,0,0,0,0,0,0,0,0,0,0,0,0,0,0,0,0,0,0,0,0,0,0,0,0,0,0,0,0,0,0,0,0,0,0,0,0,0,0,0,0,0,0,0,0,-0.3011,-0.301,0,-0.2956,-0.2955,-0.2955,-0.2939,-0.294,-0.294,-0.294,-0.2884,-0.2882,-0.288,0,0,0,0,0,0,0,0,0,0,0,0,0,-0.3101,-0.31,-0.3011,-0.301,-0.301,-0.2956,-0.2955,-0.2955,-0.2939,-0.294,-0.294,-0.294,-0.2884,-0.2882,-0.288,0,0,0,0,0,0,0,0,0,0,0,0,0,-0.3056,-0.3099,-0.3011,-0.2995,-0.2993,-0.2956,-0.2955,-0.2954,-0.2939,-0.294,-0.294,-0.294,-0.2885,-0.2882,-0.288,-0.2854,0,0,-0.2871,-0.287,0,0,0,0,0,0,0,0,-0.3059,-0.3053,-0.2998,-0.2996,-0.2994,-0.2955,-0.2967,-0.2921,-0.2939,-0.296,-0.294,-0.2941,-0.2907,-0.2902,-0.2891,-0.2851,-0.2849,-0.2871,-0.287,-0.2868,-0.2868,0,0,0,0,0,0,0,-0.3062,-0.3055,-0.2989,-0.2998,-0.2995,-0.2991,-0.2985,-0.2958,-0.2931,-0.2958,-0.2957,-0.295,-0.2906,-0.2894,-0.289,-0.2848,-0.2871,-0.2869,-0.2867,-0.2866,-0.2783,-0.2783,0,0,0,0,0,0,-0.3068,-0.3058,-0.2991,-0.2988,-0.3028,-0.2989,-0.2982,-0.2967,-0.2932,-0.2927,-0.295,-0.295,-0.2898,-0.2893,-0.2888,-0.2855,-0.2868,-0.2866,-0.2864,-0.2784,-0.2783,-0.2783,0,0,0,0,0,0,-0.307,-0.3062,-0.2993,-0.3022,-0.3013,-0.2987,-0.297,-0.2966,-0.2954,-0.2926,-0.2921,-0.2943,-0.2898,-0.2891,-0.2862,-0.2853,-0.2865,-0.2862,-0.2785,-0.2784,-0.2783,-0.279,0,0,0,0,0,0,-0.3072,-0.3063,-0.3053,-0.3022,-0.3012,-0.2969,-0.2969,-0.2964,-0.2949,-0.2948,-0.2918,-0.2913,-0.2898,-0.2866,-0.286,-0.2849,-0.286,-0.2785,-0.2784,-0.2783,-0.279,-0.2789,-0.2788,0,0,0,0,0,-0.3076,-0.3057,-0.3053,-0.3045,-0.2999,-0.2969,-0.2963,-0.2946,-0.2948,-0.2938,-0.292,-0.2914,-0.2855,-0.2864,-0.2856,-0.2845,-0.2786,-0.2785,-0.2783,-0.2791,-0.2789,-0.2788,0,0,0,0,0,0,-0.3088,-0.3053,-0.3047,-0.3018,-0.2997,-0.2966,-0.2953,-0.2945,-0.2922,-0.2923,-0.2903,-0.2896,-0.2868,-0.2853,-0.2864,-0.2817,-0.282,-0.2817,-0.2828,-0.2827,-0.2826,-0.283,-0.2858,0,0,0,0,0,-0.3087,-0.3066,-0.3036,-0.3013,-0.3003,-0.298,-0.2966,-0.2955,-0.2931,-0.2922,-0.2902,-0.2879,-0.2855,-0.284,-0.2817,-0.2787,-0.278,-0.2776,-0.2775,-0.2774,-0.2772,-0.2755,-0.2752,-0.2778,-0.2778,-0.2778,0,0,-0.3086,-0.3064,-0.3051,-0.3015,-0.2997,-0.2975,-0.2972,-0.2949,-0.2932,-0.2918,-0.289,-0.2874,-0.2847,-0.2818,-0.2804,-0.2804,-0.2763,-0.2772,-0.2772,-0.277,-0.2753,-0.2751,-0.2748,-0.2777,-0.2777,-0.2778,0,0,-0.3072,-0.3053,-0.3032,-0.3013,-0.2985,-0.297,-0.2965,-0.2935,-0.2924,-0.2895,-0.2884,-0.2863,-0.2823,-0.2804,-0.2789,-0.2767,-0.276,-0.276,-0.2755,-0.2738,-0.2736,-0.2734,-0.2725,-0.2723,-0.2757,-0.2757,-0.2757,0,-0.3073,-0.3039,-0.3022,-0.2999,-0.2983,-0.2969,-0.2947,-0.293,-0.2896,-0.2886,-0.2887,-0.2835,-0.2816,-0.2782,-0.2776,-0.2765,-0.2758,-0.2763,-0.2738,-0.2735,-0.2733,-0.2725,-0.2722,-0.2758,-0.2757,-0.2757,-0.2757,0,-0.3043,-0.3019,-0.3005,-0.2973,-0.2955,-0.2933,-0.2911,-0.2896,-0.2886,-0.287,-0.284,-0.2817,-0.2788,-0.2779,-0.2769,-0.2743,-0.2744,-0.2741,-0.2744,-0.2731,-0.2723,-0.272,-0.2758,-0.2758,-0.2758,-0.2758,0,0,-0.3036,-0.2993,-0.2988,-0.2973,-0.294,-0.2922,-0.2898,-0.287,-0.2857,-0.2834,-0.2813,-0.2779,-0.2776,-0.2759,-0.2747,-0.2732,-0.2715,-0.2732,-0.2731,-0.2729,-0.2684,-0.2686,-0.2683,-0.271,-0.271,-0.2709,-0.2686,0,-0.3018,-0.2976,-0.2959,-0.2925,-0.2902,-0.2888,-0.2868,-0.2846,-0.283,-0.2809,-0.2791,-0.2767,-0.2765,-0.2755,-0.274,-0.2721,-0.2706,-0.2722,-0.2691,-0.269,-0.2698,-0.2679,-0.2681,-0.2661,-0.2683,-0.2682,-0.2682,0,-0.2991,-0.2967,-0.2931,-0.2901,-0.2891,-0.2873,-0.2845,-0.2825,-0.2799,-0.2789,-0.2769,-0.2758,-0.2732,-0.2735,-0.2699,-0.2711,-0.2697,-0.2685,-0.2684,-0.2681,-0.2686,-0.2675,-0.2654,-0.2651,-0.2677,-0.2677,-0.2678,0,-0.299,-0.2949,-0.2921,-0.2909,-0.2873,-0.286,-0.2845,-0.2819,-0.2803,-0.2778,-0.2768,-0.274,-0.2726,-0.2704,-0.2685,-0.269,-0.2651,-0.2653,-0.2641,-0.2642,-0.2634,-0.2635,-0.2611,-0.2625,-0.2625,-0.2625,-0.2625,0,-0.2972,-0.295,-0.292,-0.2904,-0.2879,-0.2859,-0.2834,-0.2817,-0.2795,-0.2774,-0.276,-0.2741,-0.2717,-0.2695,-0.2679,-0.2651,-0.2645,-0.2635,-0.2632,-0.2637,-0.2638,-0.2628,-0.2629,-0.2624,-0.2624,-0.2624,-0.2625,0,-0.2966,-0.2946,-0.2915,-0.2883,-0.2874,-0.2857,-0.283,-0.2813,-0.2796,-0.277,-0.2762,-0.2736,-0.2709,-0.2688,-0.2652,-0.2642,-0.2612,-0.2608,-0.2621,-0.2619,-0.2609,-0.261,-0.2577,-0.2572,-0.2589,-0.2589,-0.2589,0,-0.2957,-0.2939,-0.2905,-0.289,-0.2875,-0.2851,-0.2834,-0.2814,-0.2797,-0.2765,-0.2752,-0.2723,-0.27,-0.2657,-0.2634,-0.2606,-0.2602,-0.2592,-0.2597,-0.2603,-0.2601,-0.2603,-0.2601,-0.2591,-0.2591,-0.2591,-0.2591,0,-0.2941,-0.2931,-0.2908,-0.288,-0.286,-0.2838,-0.2815,-0.2803,-0.2778,-0.276,-0.2732,-0.2713,-0.2677,-0.2648,-0.2618,-0.2602,-0.2592,-0.2589,-0.2585,-0.2591,-0.2599,-0.2594,-0.262,-0.2591,-0.2591,-0.2591,-0.2591,-0.2591,-0.2933,-0.2917,-0.289,-0.2864,-0.2844,-0.2823,-0.2805,-0.2786,-0.2762,-0.2731,-0.272,-0.2691,-0.2664,-0.2622,-0.2605,-0.2582,-0.2581,-0.2575,-0.2574,-0.2572,-0.2573,-0.2602,-0.2576,-0.2576,-0.2576,-0.2576,-0.2576,0,-0.2917,-0.2899,-0.2875,-0.2843,-0.2822,-0.2814,-0.2788,-0.2771,-0.2746,-0.2722,-0.2699,-0.2666,-0.2638,-0.2613,-0.2584,-0.257,-0.2564,-0.2563,-0.2564,-0.256,-0.2575,-0.2582,-0.2567,-0.2567,-0.2567,-0.2567,-0.2567,-0.2567,-0.2906,-0.2878,-0.2865,-0.2827,-0.2809,-0.278,-0.2766,-0.2746,-0.2726,-0.269,-0.2667,-0.2651,-0.2626,-0.2594,-0.2568,-0.2561,-0.2551,-0.2551,-0.2543,-0.2558,-0.2559,-0.256,-0.2566,-0.2549,-0.2549,-0.2529,-0.2529,-0.2529]},{"header":{"parameterUnit":"m.s-1","parameterCategory":1,"la1":30.2991,"la2":30.254,"lo1":-89.0895,"lo2":-89.0444,"dy":0.0017,"dx":0.0017,"nx":28,"ny":28,"refTime":"2025-03-23T03:00:00:Z","depth":0,"parameterNumber":3,"parameterNumberName":"V-component_of_WINDS"},"data":[0,0,0,0,0,0,0,0,0,0,0,0,0,0,0,0,0,0,0,0,0,0,0,0,0,0,0,0,0,0,0,0,0,0,0,0,0,0,0,0,0,0,0,0,0,0,0,0,0,0,0,0,0,0,0,0,0,0,1.8402,1.8402,0,1.8465,1.8466,1.8467,1.8433,1.8431,1.8429,1.8427,1.8492,1.8495,1.8499,0,0,0,0,0,0,0,0,0,0,0,0,0,1.8248,1.8251,1.8402,1.8402,1.8403,1.8465,1.8466,1.8467,1.8433,1.8431,1.8429,1.8427,1.8491,1.8495,1.8499,0,0,0,0,0,0,0,0,0,0,0,0,0,1.8314,1.8252,1.8401,1.8394,1.8394,1.8465,1.8466,1.8467,1.8433,1.8431,1.8428,1.8426,1.849,1.8494,1.8499,1.8582,0,0,1.8515,1.8517,0,0,0,0,0,0,0,0,1.831,1.832,1.8394,1.8394,1.8394,1.8438,1.8436,1.8506,1.8434,1.8418,1.8427,1.8424,1.8476,1.8482,1.85,1.8585,1.8588,1.8515,1.8518,1.852,1.8522,0,0,0,0,0,0,0,1.8306,1.8317,1.8427,1.8395,1.8395,1.8386,1.8393,1.8449,1.8461,1.8419,1.8417,1.8425,1.8476,1.8495,1.8501,1.8589,1.8515,1.8519,1.8522,1.8524,1.8743,1.8746,0,0,0,0,0,0,1.8302,1.8313,1.8425,1.8429,1.8345,1.8391,1.8398,1.8427,1.846,1.8463,1.8427,1.8423,1.8488,1.8495,1.8503,1.8601,1.852,1.8525,1.8528,1.8741,1.8744,1.8747,0,0,0,0,0,0,1.8299,1.8312,1.8422,1.837,1.8384,1.8397,1.8429,1.8429,1.8449,1.8466,1.8468,1.8445,1.8486,1.8496,1.8562,1.8603,1.8527,1.8532,1.8737,1.8742,1.8745,1.8799,0,0,0,0,0,0,1.8294,1.8311,1.8343,1.8371,1.8387,1.8481,1.8431,1.8433,1.8457,1.8453,1.8483,1.8486,1.8485,1.8555,1.8567,1.8609,1.8536,1.8734,1.8739,1.8744,1.8794,1.8804,1.8814,0,0,0,0,0,1.8289,1.8356,1.8345,1.8359,1.8427,1.8484,1.8492,1.849,1.8461,1.8493,1.8504,1.8485,1.8597,1.8562,1.8576,1.8619,1.8731,1.8738,1.8744,1.8789,1.8802,1.8813,0,0,0,0,0,0,1.8333,1.836,1.8348,1.8426,1.8453,1.8478,1.8518,1.8504,1.854,1.8534,1.8529,1.8537,1.8605,1.8619,1.858,1.87,1.8659,1.8669,1.8689,1.8702,1.8712,1.8707,1.854,0,0,0,0,0,1.8351,1.8395,1.8416,1.8483,1.8497,1.8505,1.853,1.8526,1.8553,1.8564,1.858,1.8607,1.8648,1.8676,1.8715,1.8795,1.8801,1.8831,1.8841,1.8849,1.8858,1.89,1.8914,1.8768,1.8768,1.8768,0,0,1.839,1.841,1.8439,1.8492,1.8513,1.8558,1.8515,1.8565,1.8598,1.8572,1.8635,1.8648,1.8678,1.8751,1.8784,1.8764,1.8899,1.8858,1.8864,1.8868,1.8908,1.8922,1.8934,1.8772,1.8771,1.8771,0,0,1.8484,1.8504,1.8562,1.8583,1.8614,1.8619,1.8632,1.8659,1.8667,1.873,1.8711,1.875,1.8821,1.8843,1.8863,1.8964,1.8948,1.8977,1.903,1.9071,1.9083,1.9093,1.9129,1.9142,1.8985,1.8985,1.8985,0,1.8529,1.8597,1.8593,1.8644,1.8668,1.8646,1.8703,1.8723,1.8766,1.8782,1.8759,1.8847,1.8866,1.8944,1.8968,1.8986,1.9001,1.8974,1.9082,1.9092,1.9101,1.9135,1.9149,1.8988,1.8988,1.8988,1.8987,0,1.865,1.8697,1.8739,1.8781,1.8809,1.8863,1.8867,1.8896,1.8889,1.8896,1.896,1.8981,1.9023,1.9041,1.9035,1.9118,1.9105,1.9082,1.9041,1.9119,1.915,1.9163,1.8993,1.8992,1.8991,1.899,0,0,1.8775,1.8812,1.8828,1.8845,1.8877,1.8914,1.8966,1.9007,1.9032,1.9061,1.9105,1.9165,1.9143,1.9167,1.9162,1.9199,1.9277,1.9171,1.9172,1.919,1.9369,1.9386,1.9401,1.9266,1.9268,1.927,1.9366,0,1.8871,1.8963,1.896,1.9046,1.9089,1.9068,1.9113,1.9137,1.9145,1.9182,1.919,1.9232,1.9201,1.9215,1.925,1.926,1.9313,1.9253,1.9306,1.9308,1.9299,1.9418,1.9437,1.9527,1.9379,1.9381,1.9382,0,1.8996,1.9029,1.9119,1.9144,1.9162,1.9203,1.924,1.9276,1.9302,1.9305,1.933,1.932,1.9372,1.9329,1.9401,1.936,1.9381,1.9389,1.9393,1.9398,1.935,1.9426,1.9555,1.9569,1.9402,1.94,1.9399,0,1.9077,1.9145,1.9207,1.9223,1.9253,1.9282,1.9296,1.932,1.9345,1.9377,1.9393,1.943,1.9451,1.948,1.948,1.9449,1.9553,1.951,1.9556,1.9556,1.958,1.9578,1.9714,1.9593,1.9593,1.9592,1.9592,0,1.9185,1.9241,1.9244,1.9282,1.9344,1.9339,1.94,1.9411,1.9432,1.9472,1.9455,1.9493,1.949,1.9528,1.9528,1.9587,1.9596,1.96,1.9599,1.9601,1.9601,1.9616,1.9609,1.9596,1.9595,1.9595,1.9594,0,1.9287,1.9291,1.9358,1.9381,1.9388,1.9432,1.9451,1.9487,1.9492,1.9543,1.9554,1.9563,1.9606,1.9609,1.9659,1.9658,1.973,1.9723,1.9722,1.972,1.9767,1.9762,1.9917,1.9937,1.9803,1.9804,1.9805,0,1.9356,1.9399,1.9426,1.9451,1.9466,1.9508,1.9532,1.9529,1.9556,1.9588,1.962,1.9662,1.9695,1.9765,1.9776,1.9813,1.9807,1.9858,1.9812,1.9813,1.9807,1.9805,1.9809,1.9867,1.9869,1.987,1.9871,0,1.9478,1.9477,1.9514,1.9551,1.9581,1.961,1.9637,1.9659,1.9659,1.9689,1.9733,1.9759,1.9809,1.9851,1.9888,1.9901,1.9886,1.9885,1.9898,1.9901,1.9899,1.99,1.9746,1.9882,1.9881,1.988,1.9879,1.9879,1.9565,1.9602,1.9626,1.9667,1.9687,1.9712,1.9747,1.9756,1.9793,1.9834,1.983,1.9878,1.9902,1.995,1.9967,2.0004,1.9987,2.0005,2.001,2.0015,2.002,1.9892,2.0011,2.0011,2.001,2.001,2.001,0,1.9686,1.97,1.9738,1.9776,1.9808,1.9791,1.9819,1.9847,1.989,1.9914,1.9947,1.9997,2.0037,2.005,2.0088,2.0116,2.011,2.0126,2.0124,2.0128,2.0033,2.0018,2.013,2.013,2.013,2.013,2.013,2.013,1.9752,1.9813,1.9815,1.9885,1.9898,1.9946,1.9964,1.9987,2.0006,2.0062,2.0095,2.0103,2.0123,2.0162,2.0198,2.0201,2.0216,2.0235,2.0235,2.0146,2.0134,2.0123,2.0109,2.0238,2.0238,2.0326,2.0327,2.0327]}]]